This demonstration page uses our WeatherBlox Daily Observations layout. Learn more.

Left ArrowRight Arrow

38.88101, -77.10428

Hourly Observations for March 27, 2019

Temp ( °F °C ) Dew Point ( °F °C ) Humidity (%) Winds ( mph kmh ) Pressure ( in mb ) Visibility ( mi km ) Precip ( " mm )
12:52 am 00:52 Clear 43 6.1 18 -7.8 37 37 Calm 30.4 1029 10 16.0934 0 0
1:52 am 01:52 Clear 41 5 15 -9.4 35 35 N 5 7 30.41 1030 10 16.0934 0 0
2:52 am 02:52 Clear 38 3.3 19 -7.2 46 46 NNE 7 11 30.42 1030 10 16.0934 0 0
3:52 am 03:52 Clear 38 3.3 15 -9.4 39 39 NE 9 15 30.43 1030 10 16.0934 0 0
4:52 am 04:52 Clear 37 2.8 19 -7.2 48 48 NE 7 11 30.44 1031 10 16.0934 0 0
5:52 am 05:52 Clear 36 2.2 19 -7.2 50 50 ENE 5 7 30.46 1032 10 16.0934 0 0
6:52 am 06:52 Mostly Clear 36 2.2 14 -10 40 40 NE 6 9 30.49 1033 10 16.0934 0 0
7:52 am 07:52 Mostly Sunny 38 3.3 13 -10.6 36 36 NNE 10 17 30.51 1033 10 16.0934 0 0
8:52 am 08:52 Mostly Sunny 41 5 14 -10 33 33 NE 9 15 30.53 1034 10 16.0934 0 0
9:52 am 09:52 Mostly Cloudy 44 6.7 16 -8.9 32 32 NE 8 13 30.53 1034 10 16.0934 0 0
10:52 am 10:52 Mostly Cloudy 46 7.8 14 -10 27 27 VRB 3 6 30.53 1034 10 16.0934 0 0
11:52 am 11:52 Mostly Cloudy 47 8.3 13 -10.6 25 25 E 3 6 30.54 1034 10 16.0934 0 0
12:52 pm 12:52 Mostly Cloudy 50 10 13 -10.6 22 22 Calm 30.53 1034 10 16.0934 0 0
1:52 pm 13:52 Mostly Cloudy 51 10.6 14 -10 23 23 SW 3 6 30.5 1033 10 16.0934 0 0
2:52 pm 14:52 Mostly Cloudy 53 11.7 15 -9.4 22 22 Calm 30.49 1032 10 16.0934 0 0
3:52 pm 15:52 Partly Cloudy 54 12.2 14 -10 20 20 VRB 3 6 30.47 1032 10 16.0934 0 0
4:52 pm 16:52 Mostly Sunny 54 12.2 15 -9.4 21 21 E 3 6 30.44 1031 10 16.0934 0 0
5:52 pm 17:52 Mostly Sunny 53 11.7 15 -9.4 22 22 SE 6 9 30.44 1031 10 16.0934 0 0
6:52 pm 18:52 Mostly Sunny 50 10 15 -9.4 25 25 E 8 13 30.45 1031 10 16.0934 0 0
7:52 pm 19:52 Mostly Clear 49 9.4 16 -8.9 27 27 ESE 8 13 30.45 1031 10 16.0934 0 0
8:52 pm 20:52 Clear 47 8.3 21 -6.1 36 36 SE 7 11 30.46 1032 10 16.0934 0 0
9:52 pm 21:52 Clear 45 7.2 22 -5.6 40 40 SSE 10 17 30.47 1032 10 16.0934 0 0
10:52 pm 22:52 Clear 44 6.7 27 -2.8 51 51 SSE 10 17 30.47 1032 10 16.0934 0 0
11:52 pm 23:52 Clear 43 6.1 29 -1.7 58 58 SSE 8 13 30.48 1032 10 16.0934 0 0

Powered by AerisWeather